Location: Indian Hills
(32.9760°N, 85.9450°W)
Time: 07:36:29
(UTC+00:00)

USA 238 DEB - Pass Details

Date: 09 December 2019
Orbit: 1024 x 1188 km, 63.4° (Epoch: 16 January)

Event Time Altitude Azimuth Distance (km) Brightness Sun altitude
Rises 11:43:12 0° 197° (SSW) 3,752 6.6 -10.8°
Reaches altitude 10° 11:45:49 10° 194° (SSW) 2,806 6.0 -10.3°
Maximum altitude 11:52:17 61° 116° (ESE) 1,165 4.3 -9.0°
Drops below altitude 10° 11:58:56 10° 37° (NE) 2,883 6.2 -7.7°
Sets 12:01:38 0° 35° (NE) 3,862 6.8 -7.2°
